This demonstration page uses our WeatherBlox Daily Observations layout. Learn more.

Left ArrowRight Arrow

41.12389, -100.76542

Hourly Observations for July 8, 2022

Temp ( °F °C ) Dew Point ( °F °C ) Humidity (%) Winds ( mph kmh ) Pressure ( in mb ) Visibility ( mi km ) Precip ( " mm )
12:53 am 00:53 Clear 69 20.6 66 18.9 90 90 ESE 3 6 30.02 1017 10 16 0.00 0.00
1:53 am 01:53 Clear 66 18.9 64 17.8 93 93 NW 5 7 30.02 1017 10 16 0.00 0.00
2:53 am 02:53 Clear 66 18.9 63 17.2 90 90 W 3 6 30.04 1017 10 16 0.00 0.00
3:53 am 03:53 Clear 65 18.3 62 16.7 90 90 Calm 30.04 1017 9 14 0.00 0.00
4:48 am 04:48 Partly Cloudy 64 18 63 17 94 94 NW 3 6 30.05 1018 10 16 0.00 0.00
4:53 am 04:53 Mostly Cloudy 65 18.3 63 17.2 93 93 NNW 3 6 30.06 1018 10 16 0.00 0.00
5:12 am 05:12 Mostly Cloudy with Mist and Fog 65 18.3 62 16.7 90 90 NW 6 9 30.06 1018 6 10 0.00 0.00
5:20 am 05:20 Mostly Cloudy with Mist and Fog 64 17.8 62 16.7 93 93 WNW 3 6 30.06 1018 2 3 0.00 0.00
5:27 am 05:27 Cloudy with Mist and Fog 64 17.8 62 16.7 93 93 NW 5 7 30.06 1018 1 1 0.00 0.00
5:31 am 05:31 Cloudy with Mist and Fog 64 17.8 63 17.2 96 96 NW 3 6 30.06 1018 1 2 0.00 0.00
5:39 am 05:39 Mostly Cloudy with Mist and Fog 65 18.3 63 17.2 93 93 Calm 30.06 1018 2 3 0.00 0.00
5:44 am 05:44 Partly Cloudy with Mist and Fog 65 18.3 63 17.2 93 93 Calm 30.06 1018 5 8 0.00 0.00
5:53 am 05:53 Partly Cloudy 64 17.8 63 17.2 96 96 SE 3 6 30.07 1018 9 14 0.00 0.00
6:14 am 06:14 Mostly Cloudy with Mist and Fog 66 18.9 64 17.8 93 93 NNW 3 6 30.05 1018 6 10 0.00 0.00
6:44 am 06:44 Partly Cloudy with Mist and Fog 66 18.9 63 17.2 90 90 Calm 30.06 1018 4 6 0.00 0.00
6:53 am 06:53 Mostly Sunny 66 18.9 64 17.8 93 93 Calm 30.08 1019 9 14 0.00 0.00
7:53 am 07:53 Sunny 71 21.7 68 20 90 90 Calm 30.08 1019 9 14 0.00 0.00
8:53 am 08:53 Sunny 76 24.4 69 20.6 79 79 SW 3 6 30.08 1019 10 16 0.00 0.00
9:53 am 09:53 Mostly Sunny 80 26.7 69 20.6 69 69 VRB 6 9 30.09 1019 10 16 0.00 0.00
10:53 am 10:53 Mostly Sunny 83 28.3 66 18.9 57 57 VRB 3 6 30.10 1019 10 16 0.00 0.00
11:53 am 11:53 Mostly Sunny 85 29.4 66 18.9 53 53 NNW 8 13 30.09 1019 10 16 0.00 0.00
12:53 pm 12:53 Mostly Sunny 87 30.6 68 20 53 53 VRB 5 7 30.08 1019 10 16 0.00 0.00
1:53 pm 13:53 Sunny 89 31.7 66 18.9 47 47 VRB 3 6 30.08 1019 10 16 0.00 0.00
2:53 pm 14:53 Sunny 91 32.8 59 15 34 34 VRB 3 6 30.06 1018 10 16 0.00 0.00
3:53 pm 15:53 Sunny 92 33.3 58 14.4 32 32 Calm 30.06 1018 10 16 0.00 0.00
4:53 pm 16:53 Sunny 92 33.3 60 15.6 34 34 SSE 8 13 30.05 1018 10 16 0.00 0.00
5:53 pm 17:53 Sunny 92 33.3 61 16.1 36 36 SE 7 11 30.06 1018 10 16 0.00 0.00
6:53 pm 18:53 Sunny 88 31.1 67 19.4 50 50 ESE 12 19 30.05 1018 10 16 0.00 0.00
7:53 pm 19:53 Sunny 84 28.9 68 20 59 59 ESE 12 19 30.05 1018 10 16 0.00 0.00
8:53 pm 20:53 Sunny 80 26.7 68 20 67 67 ESE 8 13 30.08 1019 10 16 0.00 0.00
9:53 pm 21:53 Clear 77 25 68 20 74 74 ESE 8 13 30.10 1019 10 16 0.00 0.00
10:53 pm 22:53 Clear 74 23.3 68 20 82 82 E 9 15 30.12 1020 10 16 0.00 0.00
11:53 pm 23:53 Clear 72 22.2 67 19.4 84 84 SE 6 9 30.13 1020 10 16 0.00 0.00

Powered by AerisWeather